Regional Weather Roundup
Issued by NWS Wakefield, VA

Home | Current Version | Previous Version | Graphics & Text | Print | Product List | Glossary On
Versions: 1 2 3 4 5 6 7 8 9 10 11 12 13 14 15 16 17 18 19 20 21 22 23 24 25 26 27 28 29 30 31 32 33 34 35 36 37 38 39 40 41 42 43 44 45 46 47 48 49 50
000
ASUS41 KAKQ 011514
RWRAKQ

REGIONAL WEATHER ROUNDUP
NATIONAL WEATHER SERVICE WAKEFIELD VA
1100 AM EDT WED APR 01 2015

Note: "fair" indicates few or no clouds below 12,000 feet with no
significant weather and/or obstructions to visibility. * = Denotes
station may not report precipitation (e.g., rain,snow,etc.),
thunder or fog.

VAZ042-051-052>054-056-011600-
NORTHERN VIRGINIA

CITY           SKY/WX    TMP DP  RH WIND       PRES   REMARKS
WASH NATIONAL  SUNNY     50  26  39 N13       30.17S
DULLES         SUNNY     46  23  40 N7        30.17R
FORT BELVOIR   SUNNY     48  26  40 NW9       30.17R
QUANTICO       SUNNY     49  24  37 N9        30.18R
FREDERICKSBRG* SUNNY     50  25  37 N3        30.16S
STAFFORD*      SUNNY     48  21  34 N10       30.20S
WARRENTON      SUNNY     50  31  47 N10       30.16S
CULPEPER*      SUNNY     48  27  43 N9        30.17S
MANASSAS*      SUNNY     46  27  46 NW8       30.17S
LEESBURG*      SUNNY     46  30  53 NW8       30.18R
WINCHESTER     SUNNY     46  14  27 N3        30.16R
FRONT ROYAL*   FAIR      45  27  49 W6        30.16R
LURAY*         FAIR      50  27  40 N3        30.15R
$$

VAZ048-049-060>072-079>083-011600-
CENTRAL AND SOUTH CENTRAL VIRGINIA

CITY           SKY/WX    TMP DP  RH WIND       PRES   REMARKS
RICHMOND       SUNNY     51  23  33 N17G23    30.15R
CHESTERFIELD*  NOT AVBL
PETERSBURG*    SUNNY     52  24  33 NE10      30.15R
HANOVER        SUNNY     51  24  34 N7        30.17R
TAPPAHANNOCK*  SUNNY     49  20  31 N12G17    30.16R
QUINTON*       FAIR      48  27  43 NE7G17    30.15R
CHARLOTTSVILLE SUNNY     51  25  36 VRB7      30.14S
GORDONSVILLE*  FAIR      49  24  37 NE12      30.15R
ORANGE*        SUNNY     50  27  40 NW6       30.17R
LOUISA*        SUNNY     52  25  35 N9G18     30.14R
BUMPASS*       FAIR      48  23  38 NW7G16    30.15R
FARMVILLE*     SUNNY     52  31  44 N3        30.15R
CREWE*         FAIR      49  27  42 MISG      30.15R
FORT PICKETT*  FAIR      50  28  42 N8        30.15R
CHASE CITY*    FAIR      52  33  48 N8        30.15R
CLARKSVILLE*   FAIR      48  32  53 N6        30.14R
SOUTH HILL*    SUNNY     49  30  48 NE6       30.20R
LAWRENCEVILLE* FAIR      50  29  45 NE5       30.14R
EMPORIA*       SUNNY     50  27  40 N7        30.16R
$$

VAZ088>098-011600-
SOUTHEAST VIRGINIA

CITY           SKY/WX    TMP DP  RH WIND       PRES   REMARKS
NORFOLK        SUNNY     47  29  49 N14       30.14R
VIRGINIA BEACH MOSUNNY   49  31  49 N20       30.13R
NORFOLK NAVAL  MOSUNNY   51  31  46 NE16      30.16R
WEST POINT*    SUNNY     51  22  31 N9G16     30.16S
SALUDA*        FAIR      47  28  48 N13       30.14R
NEWPORT NEWS   SUNNY     51  27  39 NE12G21   30.14
LANGLEY AFB    SUNNY     47  29  49 N15       30.13R
FORT EUSTIS    SUNNY     48  28  45 N12       30.12R
WILLIAMSBURG*  SUNNY     54  34  47 N12G17    30.15R
HR EXEC AP*    FAIR      48  28  46 N10G16    30.15R
FRANKLIN*      SUNNY     49  28  43 N8        30.14S
WAKEFIELD      SUNNY     50  25  37 N10G18    30.14R
$$

VAZ020-022-025-037-045-011600-
WEST CENTRAL AND SOUTHWEST VIRGINIA

CITY           SKY/WX    TMP DP  RH WIND       PRES   REMARKS
STAUNTON*      SUNNY     48  19  32 N5        30.16R
WAYNESBORO*    FAIR      46  24  42 CALM      30.14R
HOT SPRINGS VA SUNNY     40  19  42 W10G16    30.08R
LYNCHBURG      SUNNY     49  33  54 SE3       30.15R
DANVILLE       SUNNY     55  37  50 NE6       30.14R
SOUTH BOSTON*  FAIR      52  31  45 CALM      30.15R
MARTINSVILLE   SUNNY     57  28  32 N5        30.15R
ROANOKE        SUNNY     55  20  25 N9        30.15R
BLACKSBURG     SUNNY     49  22  33 NW9       30.16R
DUBLIN*        SUNNY     52  24  34 NW8       30.16R
MARION*        SUNNY     53  19  25 NW5       30.16R
HILLSVILLE*    SUNNY     48  20  32 N9G20     30.13R
RICHLANDS*     FAIR      48  -2  12 N3        30.16R
WISE*          SUNNY     50  21  32 NE7       30.16S
ABINGDON*      SUNNY     55  28  36 CALM      30.15R
$$

MDZ021>025-VAZ099-100-011600-
SOUTHERN MARYLAND AND THE DELMARVA PENINSULA

CITY           SKY/WX    TMP DP  RH WIND       PRES   REMARKS
PATUXENT RIVER SUNNY     47  21  35 N16       30.15R
BAY BRIDGE APT   N/A     45  28  53 N8        30.16S
LEONARDTOWN    SUNNY     46  25  42 N9        30.16S
DOVER          SUNNY     45  30  55 N15       30.09R
GEORGETOWN     SUNNY     45  23  42 N10G21    30.13R
EASTON         SUNNY     48  32  53 NW13G18   30.16F
CAMBRIDGE      SUNNY     46  27  46 NW13      30.14R
SALISBURY      SUNNY     45  26  47 N14       30.12R
OCEAN CITY     SUNNY     47  27  45 N13       30.11R
WALLOPS ISLAND SUNNY     47  24  40 NE15      30.12R
ACCOMACK*      SUNNY     46  25  42 N10G20    30.12S
$$

NCZ012>017-030>032-011600-
NORTH CENTRAL AND EASTERN NORTH CAROLINA

CITY           SKY/WX    TMP DP  RH WIND       PRES   REMARKS
ROANOKE RAPIDS FAIR      50  30  46 N9G16     30.15R
RALEIGH        MOSUNNY   55  35  47 NE10      30.14R
ELIZABETH CITY SUNNY     50  32  50 N15       30.12R
AHOSKIE*       SUNNY     49  27  41 N16       30.14R
EDENTON*       SUNNY     51  32  48 N8        30.13R
CURRITUCK*     SUNNY     48  26  43 N14G20    30.12R
KILL DEVIL HLS SUNNY     45  30  55 N13G22    30.12R
MANTEO         SUNNY     46  30  54 N18G30    30.13R
CAPE HATTERAS  PTSUNNY   46  36  68 N10G23    30.13R
TARBORO*       FAIR      52  30  42 N12       30.15R
GOLDSBORO      SUNNY     55  35  47 N13       30.11R
WASHINGTON     SUNNY     51  29  41 NE8       30.14R
GREENVILLE     SUNNY     52  30  43 N10       30.15R
NEW BERN       SUNNY     55  36  48 N12       30.14R
WILMINGTON     PTSUNNY   58  42  55 NE10      30.10R
$$

VAZ048-011600-
ELSEWHERE

CITY           SKY/WX    TMP DP  RH WIND       PRES   REMARKS
HARRISBURG PA  NOT AVBL
BALTIMORE      MOSUNNY   47  25  42 NW9       30.15R
ANNAPOLIS      SUNNY     45  25  45 NW9       30.16R
ANDREWS AFB    SUNNY     47  26  44 NW12      30.15R
PHILADELPHIA   MOSUNNY   45  23  42 NW10G22   30.13R
HENDERSON NC   SUNNY     51  29  42 NE7       30.14R
GREENSBORO     MOSUNNY   57  30  35 NE5       30.12R
ROCKY MOUNT    SUNNY     53  30  41 N17       30.14R
$$

VAZ100-011600-
MARINE

STATION/POSITION TIME  TEMP    WIND        PRES    WAVE   SWELL
                       AIR SEA DIR/SP/G            HT/PER HT/PER
                 (UTC) (F)     (DEG/KT/KT) (MB)    (FT/S) (FT/S)
BRANDYWINE LGT   1400   38 40  350/ 19/ 21 1019.5R
CAPE MAY NJ      1400   40 43  350/ 11/ 15 1019.0R
LEWES DE         1400   39 42  340/ 16/ 19 1019.7R
15NM E FENWICK I 1450   39 40              1018.9R   5/ 6
OCEAN-CITY-INLET 1400   41 41   10/ 16/ 20 1018.6R
WACHAPREAGUE VA  1400   46 47  310/  4/ 12 1019.5R
THOMAS POINT MD  1500                        N/A
COVE POINT MD    1400   40     350/ 15/ 18 1020.5R
SOLOMONS ISLAND  1400      44                N/A
BISHOPS HEAD MD  1412          360/ 11/ 14   N/A
PINEY POINT MD   1400           10/ 16/ 19   N/A
CAMBRIDGE MD     1400   43 45  360/ 13/ 15 1020.2R
LEWISETTA VA     1400   44 46              1020.2R
RAPPAHANNOCK LGT 1400          340/ 18/ 20 1020.4R
STINGRAY PT      1500   43 44   20/ 16/ 19   N/A     2/ 3
YORK RVR RNG VA  1400   43      10/ 17/ 19 1019.1R
YORKTOWN VA      1400   44 47  360/ 14/ 19 1019.7R
DOMINION TERM VA 1400   45      20/  4/ 12 1019.9R
KIPTOPEKE VA     1400      49   10/ 17/ 23   N/A
CHES BAY BRIDGE  1400   42 44  350/ 18/ 22 1019.3R
CAPE HENRY VA    1400   42     340/ 19/ 22 1018.3R
CHESAPEAKE LGHT  1400   42     360/ 20/ 21 1019.5R
WILLOUBY STN VA  1400   43      20/ 18/ 20 1020.4R
S CRANEY ISL VA  1400           10/ 14/ 16 1019.8R
CAPE HENRY BUOY  1428      41                N/A     4/ 5
1ST LANDING BUOY 1500   43     360/ 17/ 21 1020.1R   3/ 3
OFFSHORE WE BUOY 1411      41                N/A     6/ 6   2/ 9
64NM E OF VA BCH 1450   43 50  360/ 21/ 25 1018.0R   8/ 7
DUCK PIER NC     1400   42 42   10/ 19/ 27 1017.8R
44056 DUCK FRF   1411      42                N/A     5/ 5
OREGON INLET NC  1400   43 53  350/ 17/ 23 1018.7R
HATTERAS NC      1400   45 56   20/ 21/ 25 1018.9R
CAPE LOOKOUT NC  1500   52      10/ 15/ 20 1019.4R
$$



USA.gov is the U.S. government's official web portal to all federal, state and local government web resources and services.